Simultaneous Nadir Overpasses (SNOs) Predictions

Prediction of SNOs between TERRA and METOP-C Satellite Orbit:

Table of predicted SNOs for the next 14.0 days since TLE Epoch: 4/6/2024
Index Date (TERRA) Time (TERRA) Lat,Lon (TERRA) SZA (TERRA ) Date (METOP-C) Time (METOP-C) Lat,Lon (METOP-C) SZA (METOP-C ) Distance(km) Time Diff (sec)
1 04/07/2024 13:27:35 79.17, -6.73 72.33 04/07/2024 13:26:34 79.18, -6.64 72.33 2.01 61
2 04/07/2024 14:16:50 -79.42, 162.51 107.36 04/07/2024 14:17:08 -79.43, 162.59 107.35 1.88 18
3 04/10/2024 04:48:01 -79.21, -56.63 108.59 04/10/2024 04:47:29 -79.22, -56.60 108.59 0.73 32
4 04/10/2024 05:37:17 79.43, 112.40 71.68 04/10/2024 05:38:03 79.43, 112.38 71.69 0.39 46
5 04/12/2024 20:08:25 79.28,-106.36 70.54 04/12/2024 20:08:21 79.28,-106.32 70.55 0.97 4
6 04/12/2024 20:56:58 -80.95, 75.51 106.99 04/12/2024 20:58:12 -80.71, 76.13 107.11 28.15 74
7 04/15/2024 10:39:36 79.03, 34.32 69.29 04/15/2024 10:38:43 79.02, 34.22 69.27 2.37 53
8 04/15/2024 11:28:49 -79.37,-155.97 110.29 04/15/2024 11:29:14 -79.37,-155.87 110.27 2.31 25
9 04/18/2024 01:59:59 -79.14, -15.16 111.49 04/18/2024 01:59:35 -79.14, -15.15 111.49 0.19 24



Historial Predications of SNOs between TERRA and METOP-C
